Location: Rounton
(54.4000°N, 1.3500°W)
Time: 13:06:29
(UTC+00:00)

Transit 2A - Pass Details

Date: 05 December 2021
Orbit: 591 x 967 km, 66.7° (Epoch: 17 January)

Event Time Altitude Azimuth Distance (km) Brightness Sun altitude
Rises 23:12:26 0° 184° (S) 3,337 - -57.0°
Reaches altitude 10° 23:14:59 10° 175° (S) 2,467 - -57.2°
Maximum altitude 23:20:05 33° 113° (ESE) 1,456 - -57.4°
Drops below altitude 10° 23:25:33 10° 52° (NE) 2,663 - -57.6°
Sets 23:28:24 0° 44° (NE) 3,641 - -57.7°
